Regional Weather Roundup
Issued by NWS

Home | Current Version | Previous Version | Text Only | Print | Product List | Glossary Off
Versions: 1 2 3 4 5 6 7 8 9 10 11 12 13 14 15 16 17 18 19 20 21 22 23 24

000
ASUS45 KCYS 220810
RWRWY

WYOMING REGIONAL WEATHER ROUNDUP
NATIONAL WEATHER SERVICE CHEYENNE WY
200 AM MDT WED MAR 22 2017

NOTE:  "FAIR" INDICATES FEW OR NO CLOUDS BELOW 12,000 FEET
WITH NO SIGNIFICANT WEATHER AND/OR OBSTRUCTIONS TO VISIBILITY.

WYZ001-220900-
YELLOWSTONE NATIONAL PARK

CITY           SKY/WX    TMP DP  RH WIND       PRES   REMARKS
LK YELLOWSTONE   N/A     33  33 100 CALM      29.98F
W YELLOWSTONE  NOT AVBL

$$
WYZ002>013-054>058-071-098>099-220900-
NORTHERN WYOMING

CITY           SKY/WX    TMP DP  RH WIND       PRES   REMARKS
JACKSON        CLOUDY    37  37 100 S7        29.97R WCI  32
CODY           FAIR      36  34  92 S8        29.86F WCI  30
GREYBULL       FAIR      36  35  96 CALM      29.85F
WORLAND        FAIR      34  34 100 SW5       29.86F WCI  30
SHERIDAN       FAIR      34  32  92 W8        29.86F WCI  27
BUFFALO        FAIR      42  35  76 SE17      29.87S
GILLETTE       FAIR      34  32  92 S28G38    29.91F WCI  21
HULETT         FOG       30  30 100 NE3       29.96F VSB 1/4
NEWCASTLE      FAIR      37  28  70 SE21G30   30.04F WCI  27

$$
WYZ014>020-022>026-101>103-220900-
CENTRAL WYOMING

CITY           SKY/WX    TMP DP  RH WIND       PRES   REMARKS
BIG PINEY      FAIR      32  30  92 NE8       29.99S WCI  25
PINEDALE       FAIR      37  32  81 CALM      30.01R
DUBOIS         PTSUNNY   34  32  93 N3        29.95R
LANDER         FAIR      38  34  85 VRB3      29.89F
RIVERTON       FAIR      40  36  86 SW8       29.92R WCI  34
CASPER         FAIR      36  35  96 N5        29.94F WCI  32
DOUGLAS        FAIR      40  28  62 SE23G33   29.99F WCI  30

$$
WYZ021-027>030-104>119-220900-
SOUTHERN WYOMING

CITY           SKY/WX    TMP DP  RH WIND       PRES   REMARKS
EVANSTON       LGT RAIN  42  35  76 SW18G29   30.03R
KEMMERER         N/A     37  32  81 SW6       30.02S WCI  33
FORT BRIDGER   PTSUNNY   45  31  57 NW8       30.06R
ROCK SPRINGS   FAIR      46  28  49 S9        29.99S
DIXON            N/A     55  23  29 S15G21    30.05F
RAWLINS        CLOUDY    48  26  42 SW9       30.01F
SARATOGA       FAIR      50  23  34 S9G22     30.04F
LARAMIE        FAIR      34  31  88 SE13      30.06F WCI  25
CHEYENNE       FAIR      34  28  79 S13       30.11F WCI  25
TORRINGTON     FAIR      34  31  88 E14       30.10F WCI  25
PINE BLUFFS    FAIR      37  27  65 SE18G29   30.12F WCI  27

$$




USA.gov is the U.S. government's official web portal to all federal, state and local government web resources and services.